• en France
  • Liste des pays
  • À 7 jours
  • Température de l'eau
  • Carte satellitaire
  • Carte météo
  • Widgets météo
  • user-avatar
    Se connecter

    Météo par heure à Andorre-la-Vieille

    Ce jour, 13 Novembre, Mardi

    Heure Température Précipitation Vent Pression Humidité
    00:00 +5°C° 0 mm 1 m/s 627 mmHg 71%
    01:00 +5°C° 0 mm 1 m/s 627 mmHg 71%
    02:00 +5°C° 0 mm 1 m/s 627 mmHg 70%
    03:00 +5°C° 0 mm 1 m/s 627 mmHg 69%
    04:00 +5°C° 0 mm 1 m/s 627 mmHg 69%
    05:00 +5°C° 0 mm 1 m/s 627 mmHg 69%
    06:00 +5°C° 0 mm 1 m/s 628 mmHg 69%
    07:00 +6°C° 0 mm 1 m/s 629 mmHg 67%
    08:00 +7°C° 0 mm 1 m/s 629 mmHg 66%
    09:00 +9°C° 0 mm 1 m/s 630 mmHg 65%
    10:00 +10°C° 0 mm 1 m/s 631 mmHg 61%
    11:00 +11°C° 0 mm 1 m/s 631 mmHg 58%
    12:00 +12°C° 0 mm 2 m/s 632 mmHg 54%
    13:00 +12°C° 0 mm 2 m/s 632 mmHg 58%
    14:00 +12°C° 0 mm 2 m/s 631 mmHg 62%
    15:00 +10°C° 0 mm 2 m/s 631 mmHg 65%
    16:00 +10°C° 0 mm 1 m/s 631 mmHg 72%
    17:00 +8°C° 0 mm 1 m/s 630 mmHg 79%
    18:00 +5°C° 0 mm 0 m/s 629 mmHg 86%
    19:00 +6°C° 0 mm 1 m/s 629 mmHg 85%
    20:00 +6°C° 0 mm 1 m/s 629 mmHg 83%
    21:00 +5°C° 0 mm 1 m/s 629 mmHg 82%
    22:00 +5°C° 0 mm 1 m/s 629 mmHg 80%
    23:00 +5°C° 0 mm 1 m/s 629 mmHg 78%

    Demain, 14 Novembre, Mercredi

    Heure Température Précipitation Vent Pression Humidité
    00:00 +5°C° 0 mm 1 m/s 629 mmHg 77%
    01:00 +5°C° 0 mm 1 m/s 629 mmHg 76%
    02:00 +5°C° 0 mm 1 m/s 628 mmHg 75%
    03:00 +5°C° 0 mm 1 m/s 628 mmHg 74%
    04:00 +5°C° 0 mm 1 m/s 628 mmHg 74%
    05:00 +5°C° 0 mm 1 m/s 628 mmHg 74%
    06:00 +5°C° 0 mm 1 m/s 628 mmHg 75%
    07:00 +6°C° 0 mm 1 m/s 629 mmHg 71%
    08:00 +7°C° 0 mm 2 m/s 629 mmHg 68%
    09:00 +8°C° 0 mm 2 m/s 630 mmHg 65%
    10:00 +9°C° 0 mm 2 m/s 630 mmHg 62%
    11:00 +10°C° 0 mm 2 m/s 630 mmHg 59%
    12:00 +13°C° 0 mm 2 m/s 630 mmHg 56%
    13:00 +12°C° 0 mm 2 m/s 630 mmHg 59%
    14:00 +12°C° 0 mm 2 m/s 629 mmHg 62%
    15:00 +10°C° 0 mm 2 m/s 629 mmHg 65%
    16:00 +8°C° 0 mm 2 m/s 628 mmHg 72%
    17:00 +7°C° 0 mm 2 m/s 628 mmHg 79%
    18:00 +5°C° 0 mm 2 m/s 627 mmHg 86%
    19:00 +5°C° 0 mm 2 m/s 627 mmHg 84%
    20:00 +4°C° 0 mm 2 m/s 627 mmHg 82%
    21:00 +4°C° 0 mm 2 m/s 627 mmHg 80%
    22:00 +4°C° 0 mm 2 m/s 626 mmHg 79%
    23:00 +4°C° 0 mm 2 m/s 626 mmHg 78%

    Après-demain, 15 Novembre, Jeudi

    Heure Température Précipitation Vent Pression Humidité
    00:00 +3°C° 0 mm 2 m/s 626 mmHg 77%
    01:00 +4°C° 0 mm 2 m/s 626 mmHg 79%
    02:00 +4°C° 0 mm 2 m/s 626 mmHg 81%
    03:00 +4°C° 0 mm 2 m/s 625 mmHg 83%
    04:00 +4°C° 0 mm 2 m/s 625 mmHg 83%
    05:00 +4°C° 0 mm 2 m/s 625 mmHg 84%
    06:00 +4°C° 0 mm 2 m/s 625 mmHg 84%
    07:00 +5°C° 0.1 mm 2 m/s 626 mmHg 81%
    08:00 +6°C° 0.1 mm 2 m/s 626 mmHg 77%
    09:00 +8°C° 0.1 mm 2 m/s 627 mmHg 74%
    10:00 +9°C° 0 mm 2 m/s 627 mmHg 71%
    11:00 +10°C° 0 mm 3 m/s 628 mmHg 68%
    12:00 +11°C° 0 mm 3 m/s 628 mmHg 64%
    13:00 +10°C° 0.1 mm 3 m/s 628 mmHg 66%
    14:00 +10°C° 0.1 mm 2 m/s 628 mmHg 68%
    15:00 +10°C° 0.1 mm 2 m/s 627 mmHg 69%
    16:00 +8°C° 0 mm 2 m/s 627 mmHg 76%
    17:00 +8°C° 0 mm 1 m/s 626 mmHg 82%
    18:00 +6°C° 0 mm 1 m/s 626 mmHg 89%
    19:00 +6°C° 0 mm 1 m/s 626 mmHg 88%
    20:00 +5°C° 0 mm 1 m/s 626 mmHg 86%
    21:00 +5°C° 0 mm 1 m/s 626 mmHg 85%
    22:00 +5°C° 0 mm 1 m/s 626 mmHg 84%
    23:00 +5°C° 0 mm 1 m/s 626 mmHg 83%

    16 Novembre, Vendredi

    Heure Température Précipitation Vent Pression Humidité
    00:00 +5°C° 0 mm 1 m/s 626 mmHg 83%
    01:00 +4°C° 0 mm 1 m/s 626 mmHg 83%
    02:00 +4°C° 0 mm 1 m/s 626 mmHg 83%
    03:00 +4°C° 0 mm 1 m/s 626 mmHg 83%
    04:00 +4°C° 0 mm 1 m/s 626 mmHg 83%
    05:00 +4°C° 0 mm 1 m/s 626 mmHg 83%
    06:00 +4°C° 0 mm 1 m/s 626 mmHg 82%
    07:00 +6°C° 0 mm 1 m/s 627 mmHg 78%
    08:00 +7°C° 0 mm 1 m/s 628 mmHg 74%
    09:00 +8°C° 0 mm 2 m/s 629 mmHg 70%
    10:00 +9°C° 0 mm 2 m/s 629 mmHg 67%
    11:00 +9°C° 0 mm 2 m/s 629 mmHg 64%
    12:00 +10°C° 0 mm 2 m/s 629 mmHg 60%
    13:00 +10°C° 0 mm 2 m/s 629 mmHg 63%
    14:00 +10°C° 0 mm 2 m/s 629 mmHg 65%
    15:00 +9°C° 0 mm 2 m/s 628 mmHg 67%
    16:00 +8°C° 0 mm 2 m/s 628 mmHg 75%
    17:00 +7°C° 0 mm 1 m/s 627 mmHg 82%
    18:00 +5°C° 0 mm 1 m/s 626 mmHg 89%
    19:00 +5°C° 0 mm 1 m/s 626 mmHg 89%
    20:00 +5°C° 0 mm 1 m/s 626 mmHg 89%
    21:00 +4°C° 0 mm 1 m/s 626 mmHg 88%
    22:00 +4°C° 0 mm 1 m/s 626 mmHg 86%
    23:00 +4°C° 0 mm 1 m/s 626 mmHg 84%

    17 Novembre, Samedi

    Heure Température Précipitation Vent Pression Humidité
    00:00 +3°C° 0 mm 1 m/s 626 mmHg 81%
    01:00 +3°C° 0 mm 1 m/s 626 mmHg 80%
    02:00 +3°C° 0 mm 1 m/s 626 mmHg 79%
    03:00 +3°C° 0 mm 1 m/s 625 mmHg 78%
    04:00 +3°C° 0 mm 1 m/s 625 mmHg 78%
    05:00 +2°C° 0 mm 1 m/s 625 mmHg 78%
    06:00 +2°C° 0 mm 1 m/s 625 mmHg 78%
    07:00 +4°C° 0 mm 1 m/s 626 mmHg 73%
    08:00 +4°C° 0 mm 2 m/s 626 mmHg 67%
    09:00 +6°C° 0 mm 2 m/s 627 mmHg 62%
    10:00 +7°C° 0 mm 2 m/s 627 mmHg 58%
    11:00 +8°C° 0 mm 2 m/s 627 mmHg 55%
    12:00 +8°C° 0 mm 3 m/s 628 mmHg 51%
    13:00 +8°C° 0 mm 2 m/s 627 mmHg 54%
    14:00 +7°C° 0 mm 2 m/s 627 mmHg 58%
    15:00 +7°C° 0 mm 2 m/s 626 mmHg 61%
    16:00 +5°C° 0 mm 2 m/s 626 mmHg 68%
    17:00 +4°C° 0 mm 2 m/s 625 mmHg 76%
    18:00 +2°C° 0 mm 2 m/s 625 mmHg 83%
    19:00 +2°C° 0 mm 2 m/s 625 mmHg 84%
    20:00 +2°C° 0 mm 2 m/s 625 mmHg 84%
    21:00 +1°C° 0 mm 2 m/s 625 mmHg 85%
    22:00 +1°C° 0 mm 2 m/s 624 mmHg 85%
    23:00 +1°C° 0 mm 2 m/s 624 mmHg 85%

    18 Novembre, Dimanche

    Heure Température Précipitation Vent Pression Humidité
    00:00 -1°C° 0 mm 2 m/s 624 mmHg 85%
    01:00 -1°C° 0 mm 2 m/s 623 mmHg 84%
    02:00 +1°C° 0 mm 1 m/s 623 mmHg 83%
    03:00 0°C° 0 mm 1 m/s 622 mmHg 83%
    04:00 0°C° 0 mm 1 m/s 622 mmHg 81%
    05:00 0°C° 0 mm 1 m/s 622 mmHg 79%
    06:00 0°C° 0 mm 1 m/s 622 mmHg 77%
    07:00 -1°C° 0 mm 2 m/s 622 mmHg 70%
    08:00 +1°C° 0 mm 2 m/s 623 mmHg 64%
    09:00 +3°C° 0 mm 2 m/s 624 mmHg 57%
    10:00 +4°C° 0 mm 2 m/s 624 mmHg 55%
    11:00 +5°C° 0 mm 2 m/s 624 mmHg 52%
    12:00 +5°C° 0 mm 3 m/s 624 mmHg 50%
    13:00 +4°C° 0 mm 3 m/s 623 mmHg 53%
    14:00 +4°C° 0 mm 3 m/s 623 mmHg 56%
    15:00 +3°C° 0 mm 3 m/s 623 mmHg 59%
    16:00 +3°C° 0 mm 2 m/s 622 mmHg 67%
    17:00 +1°C° 0 mm 2 m/s 621 mmHg 75%
    18:00 -1°C° 0 mm 2 m/s 621 mmHg 83%
    19:00 -2°C° 0 mm 2 m/s 621 mmHg 84%
    20:00 0°C° 0 mm 1 m/s 621 mmHg 85%
    21:00 0°C° 0 mm 1 m/s 620 mmHg 86%
    22:00 -1°C° 0 mm 1 m/s 620 mmHg 85%
    23:00 -1°C° 0 mm 1 m/s 620 mmHg 84%
    Voir plus